Date String (YYYY-MM-DD hh:mm:ss) UTC,Instrument flags,Ambient pressure (hPa),Sample flow (lpm),Bypass flow (lpm),Sample temperature (°C),Ambient temperature (°C),ASC tube jacket temperature (°C),LED temperature (°C),Box temperature (°C),Sample RH (%),Span deviation,Mass concentration (μg/m³),Mass concentration (μg/m³),Mass concentration (μg/m³)
DateTimeUTC,F1_M11,P_M11,Q1_M11,Q2_M11,T1_M11,T2_M11,T3_M11,T4_M11,T5_M11,U1_M11,ZSPAN_M11,X0_M11,X2_M11,X1_M11
2021-08-20 09:00:00,,0824.4,5.01,0.00,29.8,27.7,00.0,39.2,31.4,20.9,0000.0,0001.46,0000.61,0000.29
2021-08-20 09:01:00,,0824.4,4.99,0.00,29.8,27.9,00.0,39.2,31.4,21.6,0000.0,0001.45,0000.59,0000.27
2021-08-20 09:02:00,,0824.5,4.99,0.00,29.8,28.1,00.0,39.1,31.5,22.7,0000.0,0001.51,0000.61,0000.25
2021-08-20 09:03:00,,0824.4,5.01,0.00,29.9,28.2,00.0,39.1,31.5,23.1,0000.0,0001.77,0000.63,0000.25
2021-08-20 09:04:00,,0824.4,5.00,0.00,29.9,28.4,00.0,39.1,31.5,23.4,0000.0,0002.00,0000.68,0000.26
2021-08-20 09:05:00,,0824.4,4.99,0.00,29.9,28.5,00.0,39.1,31.6,24.3,0000.0,0004.05,0000.71,0000.28
2021-08-20 09:06:00,,0824.5,5.02,0.00,29.9,28.6,00.0,39.1,31.6,23.6,0000.0,0004.83,0000.75,0000.30
2021-08-20 09:07:00,,0824.5,5.00,0.00,29.9,28.6,00.0,39.1,31.6,23.5,0000.0,0004.93,0000.81,0000.33
2021-08-20 09:08:00,,0824.4,4.99,0.00,29.9,28.7,00.0,39.1,31.6,23.6,0000.0,0005.04,0000.93,0000.36
2021-08-20 09:09:00,,0824.5,5.01,0.00,29.9,28.7,00.0,39.1,31.7,23.3,0000.0,0005.33,0001.06,0000.39
2021-08-20 09:10:00,,0824.8,4.98,0.00,30.0,28.8,00.0,39.1,31.7,23.9,0000.0,0005.52,0001.10,0000.41
2021-08-20 09:11:00,,0824.7,5.01,0.00,30.0,28.8,00.0,39.1,31.7,23.9,0000.0,0005.63,0001.15,0000.43
2021-08-20 09:12:00,,0824.8,5.00,0.00,30.0,28.9,00.0,39.1,31.7,23.9,0000.0,0005.66,0001.17,0000.44
2021-08-20 09:13:00,,0824.7,4.99,0.00,30.0,28.9,00.0,39.1,31.7,23.9,0000.0,0005.78,0001.20,0000.47
2021-08-20 09:14:00,,0824.6,5.01,0.00,30.0,29.0,00.0,39.1,31.7,24.2,0000.0,0005.47,0001.18,0000.47
2021-08-20 09:15:00,,0824.6,5.00,0.00,30.0,29.0,00.0,39.1,31.7,23.6,0000.0,0005.45,0001.18,0000.47
2021-08-20 09:16:00,,0824.4,4.99,0.00,30.0,29.0,00.0,39.1,31.7,22.5,0000.0,0003.04,0001.18,0000.46
2021-08-20 09:17:00,,0824.5,5.01,0.00,30.1,29.0,00.0,39.1,31.7,22.2,0000.0,0002.83,0001.23,0000.46
2021-08-20 09:18:00,,0824.6,5.00,0.00,30.1,29.0,00.0,39.2,31.8,22.0,0000.0,0002.79,0001.23,0000.45
2021-08-20 09:19:00,,0824.6,4.99,0.00,30.1,29.1,00.0,39.2,31.8,22.7,0000.0,0002.64,0001.15,0000.43
2021-08-20 09:20:00,,0825.0,5.00,0.00,30.1,29.1,00.0,39.2,31.8,22.6,0000.0,0002.52,0001.11,0000.42
2021-08-20 09:21:00,,0824.8,5.00,0.00,30.1,29.1,00.0,39.2,31.8,22.2,0000.0,0002.38,0001.10,0000.41
2021-08-20 09:22:00,,0824.7,5.00,0.00,30.1,29.1,00.0,39.2,31.8,22.6,0000.0,0002.40,0001.09,0000.40
2021-08-20 09:23:00,,0824.6,5.00,0.00,30.1,29.2,00.0,39.2,31.9,22.0,0000.0,0002.32,0001.05,0000.39
2021-08-20 09:24:00,,0824.6,5.00,0.00,30.1,29.2,00.0,39.2,31.9,21.4,0000.0,0002.31,0001.05,0000.38
2021-08-20 09:25:00,,0824.7,4.99,0.00,30.1,29.2,00.0,39.2,31.9,22.5,0000.0,0002.41,0001.05,0000.38
2021-08-20 09:26:00,,0824.6,5.00,0.00,30.1,29.2,00.0,39.2,31.9,23.4,0000.0,0002.28,0001.01,0000.37
2021-08-20 09:27:00,,0824.7,5.00,0.00,30.2,29.2,00.0,39.3,31.9,24.0,0000.0,0002.23,0000.99,0000.37
2021-08-20 09:28:00,,0824.8,5.00,0.00,30.2,29.2,00.0,39.3,31.9,24.0,0000.0,0002.07,0000.93,0000.37
2021-08-20 09:29:00,,0824.5,5.01,0.00,30.2,29.2,00.0,39.3,31.9,24.1,0000.0,0002.15,0000.93,0000.39
2021-08-20 09:30:00,,0824.5,4.99,0.00,30.2,29.2,00.0,39.3,32.0,24.2,0000.0,0002.32,0000.99,0000.43
2021-08-20 09:31:00,,0824.5,4.99,0.00,30.2,29.2,00.0,39.3,32.0,24.1,0000.0,0002.59,0001.03,0000.47
2021-08-20 09:32:00,,0824.5,5.02,0.00,30.2,29.3,00.0,39.3,31.9,24.1,0000.0,0002.85,0001.10,0000.50
2021-08-20 09:33:00,,0824.7,4.99,0.00,30.2,29.2,00.0,39.3,32.0,24.5,0000.0,0003.02,0001.19,0000.54
2021-08-20 09:34:00,,0824.9,5.01,0.00,30.2,29.2,00.0,39.3,32.0,25.1,0000.0,0003.25,0001.31,0000.58
2021-08-20 09:35:00,,0824.5,4.99,0.00,30.2,29.3,00.0,39.3,31.9,25.5,0000.0,0003.32,0001.38,0000.62
2021-08-20 09:36:00,,0824.4,5.00,0.00,30.2,29.3,00.0,39.3,31.9,25.3,0000.0,0003.97,0001.43,0000.65
2021-08-20 09:37:00,,0824.4,5.01,0.00,30.2,29.3,00.0,39.3,32.0,25.1,0000.0,0005.04,0001.54,0000.69
2021-08-20 09:38:00,,0824.4,4.99,0.00,30.2,29.3,00.0,39.3,32.0,25.3,0000.0,0005.35,0001.65,0000.72
2021-08-20 09:39:00,,0824.4,5.00,0.00,30.2,29.3,00.0,39.4,32.0,25.4,0000.0,0005.63,0001.75,0000.74
2021-08-20 09:40:00,,0824.5,5.00,0.00,30.2,29.4,00.0,39.4,32.0,24.9,0000.0,0005.91,0001.82,0000.77
2021-08-20 09:41:00,,0824.4,5.01,0.00,30.2,29.4,00.0,39.4,32.0,24.7,0000.0,0005.97,0001.83,0000.78
2021-08-20 09:42:00,,0824.5,4.99,0.00,30.3,29.4,00.0,39.4,32.0,24.7,0000.0,0006.06,0001.88,0000.79
2021-08-20 09:43:00,,0824.4,5.01,0.00,30.3,29.4,00.0,39.4,32.0,24.5,0000.0,0006.32,0001.92,0000.80
2021-08-20 09:44:00,,0824.4,5.00,0.00,30.3,29.4,00.0,39.4,32.0,24.3,0000.0,0006.54,0001.99,0000.82
2021-08-20 09:45:00,,0824.4,5.02,0.00,30.3,29.5,00.0,39.4,32.0,23.6,0000.0,0006.54,0001.97,0000.82
2021-08-20 09:46:00,,0824.4,4.99,0.00,30.3,29.5,00.0,39.4,32.1,23.8,0000.0,0006.71,0002.00,0000.82
2021-08-20 09:47:00,,0824.5,4.98,0.00,30.3,29.5,00.0,39.4,32.1,23.1,0000.0,0006.12,0002.06,0000.83
2021-08-20 09:48:00,,0824.5,4.99,0.00,30.3,29.5,00.0,39.5,32.1,23.2,0000.0,0005.68,0002.09,0000.83
2021-08-20 09:49:00,,0824.4,5.01,0.00,30.3,29.5,00.0,39.5,32.1,23.6,0000.0,0007.28,0002.12,0000.85
2021-08-20 09:50:00,,0824.3,5.00,0.00,30.3,29.5,00.0,39.5,32.1,23.5,0000.0,0007.14,0002.09,0000.86
2021-08-20 09:51:00,,0824.4,4.98,0.00,30.3,29.5,00.0,39.5,32.1,22.9,0000.0,0006.93,0002.07,0000.85
2021-08-20 09:52:00,,0824.3,5.00,0.00,30.4,29.4,00.0,39.5,32.1,23.2,0000.0,0006.75,0002.05,0000.85
2021-08-20 09:53:00,,0824.3,5.01,0.00,30.3,29.4,00.0,39.5,32.1,23.8,0000.0,0006.52,0002.00,0000.84
2021-08-20 09:54:00,,0824.3,5.00,0.00,30.3,29.4,00.0,39.5,32.0,23.8,0000.0,0006.27,0001.97,0000.84
2021-08-20 09:55:00,,0824.3,4.98,0.00,30.3,29.4,00.0,39.5,32.0,24.4,0000.0,0006.11,0001.93,0000.83
2021-08-20 09:56:00,,0824.2,5.00,0.00,30.3,29.3,00.0,39.5,32.0,23.8,0000.0,0006.09,0001.95,0000.85
2021-08-20 09:57:00,,0824.2,5.01,0.00,30.3,29.4,00.0,39.5,32.0,23.8,0000.0,0005.88,0001.92,0000.90
2021-08-20 09:58:00,,0824.3,5.00,0.00,30.3,29.4,00.0,39.5,32.0,24.1,0000.0,0005.82,0001.96,0000.95
2021-08-20 09:59:00,,0824.2,4.99,0.00,30.3,29.4,00.0,39.5,32.0,24.7,0000.0,0005.24,0001.90,0000.98
